EHI
4 2 0 0 0 0 0 0 0 0 0 0 0 0 0 0 0 0 0 0 0 0 0 0 0 0 0 1 4 6 6 4 1 0 0 0 0 0 0 0 0 0 0 1 2 3 2 1 0
3 2 1 0 0 0 0 0 0 0 0 0 0 0 0 0 0 0 0 0 0 0 0 0 0 0 0 0 2 4 4 3 1 0 0 0 0 0 0 0 0 0 0 1 2 2 1 1 1
3 2 1 0 0 0 0 0 0 0 0 0 0 0 0 0 0 0 0 0 0 0 0 1 2 2 1 1 2 3 3 3 2 1 0 0 0 0 0 0 0 0 0 0 1 1 0 0 0
2 1 0 0 0 0 0 0 0 0 0 0 0 0 0 0 0 0 0 1 0 0 0 1 4 5 4 2 2 3 3 3 2 1 0 0 0 0 0 0 0 0 0 0 0 0 0 0 0
1 0 0 0 0 0 0 0 0 0 0 0 0 0 0 0 0 0 0 0 0 0 0 2 5 7 7 4 3 3 3 3 2 1 0 0 0 0 0 0 0 0 0 0 0 0 0 0 0
0 0 0 0 0 0 0 0 0 0 0 0 0 0 0 1 1 0 0 1 1 1 0 1 5 8 8 7 5 4 3 3 2 1 0 0 0 0 0 0 0 0 0 0 0 0 0 0 0
0 0 0 0 0 0 0 0 0 0 0 0 0 0 0 1 2 1 1 2 2 2 1 1 3 6 8 8 7 5 3 2 1 0 0 0 0 0 0 0 0 0 0 0 0 0 0 0 0
0 0 0 0 0 0 0 0 0 0 0 0 0 0 0 1 2 3 3 3 3 3 1 1 2 4 6 6 6 5 3 2 1 0 0 0 0 0 0 0 0 0 0 0 0 0 0 0 0
0 0 0 0 0 0 0 0 0 0 0 0 0 0 1 1 3 3 3 3 3 3 3 2 2 2 3 3 4 5 3 2 1 0 0 0 0 0 0 0 0 0 0 0 0 0 0 0 0
0 0 0 0 0 0 0 0 0 0 0 0 0 1 2 3 3 3 2 2 3 3 3 3 2 1 0 1 2 3 2 1 1 0 0 0 0 0 0 0 0 0 0 0 0 0 0 0 0
0 0 0 0 0 0 0 0 0 0 0 0 0 1 2 3 2 1 1 1 1 2 3 3 1 0 0 0 1 2 1 0 0 0 0 0 0 0 0 0 0 0 0 0 0 0 0 0 0
0 0 0 0 0 0 0 0 0 0 0 0 0 0 1 2 1 1 2 1 1 2 3 3 2 1 0 0 0 0 0 0 0 0 0 0 0 0 0 0 0 0 0 0 0 0 0 0 0
0 0 0 0 0 0 0 0 0 0 0 0 0 0 0 0 1 1 2 1 1 2 3 3 3 3 1 0 0 0 0 0 0 0 0 0 0 0 0 0 0 0 0 0 0 0 0 0 0
0 0 0 0 0 0 0 0 0 0 0 0 0 0 0 0 0 1 1 0 0 1 3 3 3 3 1 0 0 0 0 0 0 0 0 0 0 0 0 0 0 0 0 0 0 0 0 0 0
0 0 0 0 0 0 0 0 0 0 0 0 0 0 0 0 0 0 0 0 1 1 3 3 4 3 1 0 0 0 0 0 0 0 0 0 0 0 0 0 0 0 0 0 0 0 0 0 0
0 0 0 0 0 0 0 0 0 0 0 0 0 0 0 0 0 0 0 0 1 2 3 4 5 4 2 0 0 0 0 0 0 0 0 0 0 0 0 0 0 0 0 0 0 0 0 0 0
0 0 0 0 0 0 0 0 0 0 0 0 0 0 0 0 0 0 0 0 1 3 3 4 5 5 2 0 0 0 0 0 0 0 0 0 0 0 0 0 0 0 0 0 0 0 0 0 0
0 0 0 0 0 0 0 0 0 0 0 0 0 0 0 0 0 0 0 0 1 2 4 5 4 3 1 0 0 0 0 0 0 0 0 0 0 0 0 0 0 0 0 0 0 0 0 0 0
0 0 0 0 0 0 0 0 0 0 0 0 0 0 0 0 0 0 0 0 1 3 4 4 3 1 0 0 0 0 0 0 0 0 0 0 0 0 0 0 0 0 0 0 0 0 0 0 0
0 0 0 0 0 0 0 0 0 0 0 0 0 1 1 1 0 0 0 1 2 3 4 4 3 1 0 0 0 0 0 0 0 0 0 0 0 0 0 0 0 0 0 0 0 0 0 0 0
0 0 0 0 0 0 0 0 0 0 0 0 0 1 2 1 0 0 1 2 3 3 4 4 4 2 0 0 0 0 0 0 0 0 0 0 0 0 0 0 0 0 0 0 0 0 0 0 0
0 0 0 0 0 0 0 0 0 0 0 0 0 1 2 1 0 0 1 2 3 3 3 4 4 2 1 0 0 0 0 0 0 0 0 0 0 0 0 0 0 0 0 0 0 0 0 0 0
0 0 0 0 0 0 0 0 0 0 0 0 0 0 1 1 0 0 1 3 3 3 3 3 3 3 1 1 1 0 0 0 0 0 0 0 0 0 0 0 0 0 0 0 0 0 0 0 0
0 0 0 0 0 0 0 0 0 0 0 0 0 0 0 0 0 1 2 3 3 3 3 3 3 3 3 2 2 1 0 0 0 0 0 0 0 0 0 0 0 0 0 0 0 0 0 0 0
0 0 0 0 0 0 0 0 0 0 0 0 0 0 0 0 0 1 3 3 3 3 3 3 3 3 3 3 3 2 1 0 0 0 0 0 0 0 0 0 0 0 0 0 0 0 0 0 0
0 0 0 0 0 0 0 0 0 0 0 0 0 0 0 0 1 2 3 3 3 3 3 2 1 1 3 3 3 3 2 1 0 0 0 0 0 0 0 0 0 0 0 0 0 0 0 0 0
0 0 0 0 0 0 0 0 0 0 0 0 0 0 0 0 1 2 3 3 3 3 3 1 0 1 2 3 3 3 3 2 1 0 0 0 0 0 0 0 0 0 0 0 0 0 0 0 0
0 0 0 0 0 0 0 0 0 0 0 0 0 0 0 0 1 2 3 3 3 3 2 1 0 1 2 3 3 3 3 3 2 1 0 0 0 0 0 0 0 0 0 0 0 0 0 0 0
0 0 0 0 0 0 0 0 0 0 0 0 0 0 0 0 1 2 3 3 3 3 1 0 0 0 1 2 3 3 3 3 3 1 0 0 0 0 0 0 0 0 0 0 0 0 0 0 0
0 0 0 0 0 0 0 0 0 0 0 0 0 0 0 0 1 2 3 3 3 2 1 0 0 0 0 1 2 3 3 3 3 2 1 0 0 0 0 0 0 0 0 0 0 0 0 0 0
Wind_Speed
2 1 3 3 6 6 3 1 2 2 4 4 7 9 8 6 4 4 2 6 7 5 3 5 8 9 10 10 11 11 11 11 11 12 12 12 12 12 12 12 12 12 12 12 12 11 11 11 10
0 1 3 4 5 4 2 0 3 3 5 6 7 7 7 5 4 5 3 6 7 6 3 5 8 9 10 10 11 11 11 11 11 12 12 12 12 12 12 12 12 12 12 12 12 12 11 11 11
1 1 3 4 4 4 3 2 3 3 5 5 5 5 5 4 4 4 6 9 7 5 4 5 9 9 9 10 11 11 11 11 12 12 12 12 12 12 12 12 12 12 12 11 11 11 12 12 12
2 4 5 5 4 2 6 5 4 5 5 5 6 6 4 3 4 6 9 10 8 5 4 5 9 9 9 9 10 11 11 11 11 11 12 11 12 11 11 11 11 11 11 11 11 11 12 12 12
3 4 5 3 2 1 3 5 5 5 4 5 7 6 3 2 6 9 10 9 8 5 4 5 9 9 9 9 9 10 10 10 11 10 11 11 11 11 11 10 10 10 10 10 11 11 12 12 12
4 4 4 2 1 1 2 4 6 7 6 6 7 6 2 2 7 8 9 8 8 7 5 4 8 9 9 9 9 9 9 10 10 9 10 10 10 10 10 9 9 9 9 9 10 10 11 11 12
4 4 2 3 2 2 3 4 6 6 6 5 7 6 3 2 5 7 8 7 6 6 5 3 3 5 7 7 8 8 9 9 9 9 9 9 9 9 9 9 9 9 8 9 9 10 10 10 11
4 4 2 1 3 2 2 3 5 7 5 5 6 8 5 5 5 7 7 6 6 5 4 3 3 3 3 3 6 7 7 7 7 8 8 8 8 8 8 8 8 9 8 8 8 9 9 10 11
4 5 1 2 3 2 2 4 2 4 6 3 3 5 7 8 7 7 6 4 4 5 3 4 3 3 3 3 4 5 5 5 5 5 6 6 3 3 4 5 7 7 8 8 8 9 9 9 10
5 3 2 2 4 4 3 4 4 4 5 4 5 5 8 8 8 8 7 6 5 5 4 4 4 4 3 3 3 2 2 2 2 2 2 2 2 2 3 4 6 6 7 7 8 8 8 6 4
4 4 2 1 3 4 3 2 3 7 3 6 9 10 10 8 7 7 6 6 5 5 5 5 5 4 4 2 2 1 1 1 2 2 2 2 2 2 2 2 3 4 5 4 5 5 4 3 3
3 2 2 1 2 4 4 3 3 4 5 9 13 14 11 9 8 8 8 6 5 5 5 5 5 4 4 3 3 2 2 1 1 1 2 2 2 2 2 1 2 2 2 2 3 3 4 4 4
2 2 2 2 2 3 4 4 3 3 5 9 11 11 10 9 7 6 7 7 6 5 4 5 5 5 4 4 3 3 2 2 2 2 2 3 2 2 1 1 2 2 2 2 2 3 4 4 3
3 3 1 2 2 2 4 2 3 4 7 10 11 10 9 9 8 6 6 6 6 6 5 5 5 5 5 4 3 2 2 2 2 2 2 2 2 2 2 2 2 2 2 2 2 3 3 3 3
2 2 1 2 2 2 4 0 3 6 9 9 9 9 8 7 8 9 9 8 8 7 6 6 6 5 5 4 3 3 2 3 2 2 2 3 3 3 2 2 2 2 2 2 3 3 3 3 4
2 2 1 4 2 3 5 4 6 6 10 9 8 7 7 7 8 8 9 7 7 7 6 6 6 6 5 4 4 3 2 3 2 2 2 3 3 3 3 2 2 2 2 3 3 3 3 3 3
1 2 3 4 3 3 5 5 6 6 9 9 8 7 7 6 6 7 8 8 8 7 7 6 6 6 5 5 4 3 3 2 2 2 2 2 3 3 3 2 2 2 3 2 3 2 2 2 2
4 4 3 4 4 3 4 5 5 5 8 9 8 7 7 8 8 7 7 7 7 7 7 7 6 6 5 4 3 3 3 2 2 2 2 3 2 3 3 3 2 3 3 3 3 3 3 2 1
4 3 4 6 5 4 5 6 7 5 6 7 7 8 8 9 7 6 7 7 7 6 6 6 6 5 5 3 3 3 2 1 1 1 2 3 3 3 4 3 3 3 3 2 3 2 3 2 2
2 2 4 4 4 4 4 6 6 5 8 9 10 10 10 8 5 6 7 7 7 7 7 7 6 6 5 4 3 3 3 1 1 1 1 2 3 3 4 4 3 2 3 3 3 3 2 1 2
3 4 5 4 2 0 1 4 4 4 4 5 7 9 10 11 10 9 8 8 8 8 9 8 8 6 5 5 3 3 3 2 2 1 1 1 2 2 3 3 3 3 3 3 2 2 3 1 1
5 5 4 2 2 3 2 3 7 5 3 5 7 7 8 9 9 9 9 8 9 8 7 8 8 7 6 6 5 6 4 3 3 2 1 1 1 2 2 3 3 3 2 3 2 2 2 2 1
5 4 2 2 2 1 1 2 7 2 4 7 7 8 9 10 10 11 11 10 9 8 7 7 7 7 6 6 7 6 4 3 2 1 2 1 1 1 2 2 3 3 2 3 2 2 2 2 2
2 3 5 5 4 2 5 4 6 5 8 7 7 7 8 9 9 10 9 8 7 7 6 7 7 7 7 7 7 7 7 5 4 3 2 1 0 0 1 2 2 2 2 3 2 2 3 2 2
4 6 4 4 3 6 4 3 8 6 7 9 9 7 6 7 7 8 8 8 8 8 7 7 8 7 7 8 7 7 7 7 7 5 4 3 2 1 2 2 2 2 2 3 3 3 2 2 2
3 8 7 4 4 5 3 3 6 4 2 4 5 6 5 6 7 8 9 9 9 8 8 8 8 7 7 8 7 6 7 5 4 5 4 4 3 3 3 3 2 2 3 3 3 2 2 2 2
4 4 7 6 2 2 4 4 5 2 2 3 4 5 5 6 7 8 8 8 8 8 8 8 8 7 7 7 6 5 6 5 5 5 4 3 3 3 3 3 3 3 3 3 3 2 2 2 1
5 6 5 4 3 3 4 4 5 5 4 3 4 5 5 5 6 6 7 7 7 7 6 6 6 7 6 6 6 6 6 6 5 5 5 4 4 3 4 3 3 3 3 3 3 2 1 2 1
2 2 4 4 4 5 3 7 6 8 7 7 6 6 5 5 6 7 6 6 6 6 6 6 6 5 5 5 5 5 6 5 5 5 5 5 4 4 4 4 4 3 3 3 3 2 2 2 1
5 5 6 5 4 4 4 8 5 5 5 6 6 4 4 5 5 6 6 6 5 5 5 5 5 6 5 5 5 5 5 5 5 5 5 4 4 4 4 4 3 3 3 3 3 3 2 3 2
Wind_Direction
263 63 87 60 56 57 67 39 123 78 57 58 71 83 87 74 94 130 181 138 131 126 106 96 94 88 84 84 84 87 88 85 83 81 80 79 78 77 77 75 73 70 70 72 74 73 71 71 70
55 95 69 58 76 77 49 116 102 105 131 117 81 81 80 75 88 113 123 140 133 128 117 104 98 94 90 88 88 88 89 88 86 84 82 82 80 79 78 76 74 73 71 71 71 71 70 70 70
272 121 77 64 82 130 149 188 135 109 121 103 81 60 77 104 117 136 152 145 132 125 120 116 105 99 94 93 92 90 90 89 87 84 83 83 82 81 80 78 76 75 73 73 72 71 70 70 69
57 47 56 70 85 160 160 178 146 111 80 72 94 69 63 100 138 142 142 139 131 131 129 123 113 106 100 98 96 95 92 91 89 87 84 82 83 82 81 80 78 76 75 75 73 72 72 72 69
68 70 66 72 92 159 159 158 137 116 98 89 94 92 68 48 117 131 138 139 137 140 138 128 119 113 108 104 101 99 96 95 93 91 89 86 84 83 81 81 80 78 76 76 73 71 70 70 68
58 66 80 107 119 101 128 134 115 105 109 111 104 108 122 127 125 140 141 141 143 145 141 131 130 124 117 111 107 103 100 98 96 93 92 92 89 85 81 80 83 83 82 78 73 70 68 68 66
102 93 118 141 122 108 135 126 123 121 123 139 127 111 143 175 152 145 142 138 136 139 135 129 134 129 125 119 114 110 104 101 101 99 96 93 92 90 86 84 84 86 84 79 74 68 67 68 67
123 99 83 118 130 141 141 120 127 124 127 133 125 136 169 198 163 134 132 131 134 138 143 146 142 134 128 122 119 117 110 105 102 100 98 93 88 87 86 84 83 83 81 76 71 67 67 67 66
86 79 108 179 154 157 123 102 99 99 104 100 118 152 167 163 139 125 122 122 139 145 152 155 156 156 147 141 126 116 109 97 92 94 96 86 61 58 72 83 84 81 77 73 71 64 62 63 62
86 113 203 200 165 148 129 122 127 95 92 83 79 99 134 144 139 144 147 148 154 158 162 167 165 162 154 146 118 105 100 80 73 75 83 82 75 58 65 70 79 74 65 59 60 59 59 54 50
125 160 193 165 153 134 119 114 111 120 136 162 151 150 152 152 153 155 158 157 161 163 162 167 170 169 155 136 129 105 84 81 72 76 91 90 82 61 45 33 44 46 51 43 48 50 47 52 60
122 194 168 165 143 133 140 130 107 145 185 171 160 157 159 162 169 167 166 167 162 150 152 157 160 153 151 140 135 128 116 99 92 93 102 96 80 70 64 44 40 43 46 50 46 54 55 59 65
130 198 185 160 145 149 134 136 138 162 154 146 150 152 164 170 173 173 166 162 156 152 152 148 146 143 146 135 137 130 127 127 125 98 92 99 99 93 82 61 54 49 55 60 58 62 64 63 62
184 173 181 169 153 152 133 147 127 182 153 149 155 166 175 174 169 162 158 164 164 165 163 150 141 147 142 135 134 136 130 125 111 98 105 109 106 102 92 71 55 43 51 59 74 75 68 64 72
133 109 343 256 185 177 119 82 209 190 157 159 169 174 176 181 170 170 173 171 169 166 158 152 149 138 134 136 137 128 125 117 114 117 117 111 112 112 105 90 65 48 54 58 64 60 60 68 69
77 90 241 267 195 184 134 228 237 183 161 171 181 181 177 186 180 176 172 166 161 156 154 154 145 134 133 133 129 121 116 112 114 110 107 112 120 122 112 98 77 65 68 67 66 60 61 56 55
37 189 222 270 222 176 159 219 236 191 169 180 188 189 180 181 181 180 173 165 161 160 155 148 141 139 140 133 124 118 112 106 107 102 102 113 120 119 114 107 99 85 72 71 82 66 74 67 54
212 204 215 231 238 175 185 225 233 209 181 187 189 188 181 183 190 181 168 161 157 156 153 150 144 142 136 126 109 94 88 89 92 103 109 111 114 114 110 108 103 94 82 65 68 72 60 68 60
186 185 225 244 232 187 210 226 229 215 187 189 192 192 191 196 194 173 162 156 149 148 149 153 150 149 141 136 131 125 126 113 77 95 114 114 122 119 115 113 106 97 96 96 93 86 67 46 54
211 218 250 265 231 192 217 241 239 214 201 194 191 195 194 193 182 175 167 161 160 165 165 163 161 158 156 158 155 149 146 141 134 81 87 104 115 125 127 127 123 115 107 92 86 86 77 43 48
235 213 221 226 264 330 141 295 262 251 216 197 199 196 191 190 187 183 175 175 168 170 175 172 169 162 162 155 130 107 78 59 51 55 68 105 127 127 127 130 131 126 123 126 121 113 110 100 5
233 225 202 197 132 262 162 255 269 241 240 217 212 202 198 193 188 184 180 178 178 180 177 171 167 164 160 157 154 152 152 162 190 185 167 143 136 131 132 136 138 137 134 136 139 121 120 124 109
212 218 199 193 162 290 259 196 276 251 234 235 223 207 201 195 188 186 186 185 183 178 173 174 170 166 165 170 167 163 158 165 165 150 137 135 131 129 134 136 137 144 145 147 137 120 116 127 140
181 54 35 49 74 287 240 184 266 231 214 215 218 205 197 194 190 187 186 179 178 175 171 169 169 174 174 172 169 169 166 163 155 163 167 177 168 204 169 145 143 152 149 149 146 137 132 131 128
92 85 32 358 5 254 253 185 245 247 221 201 198 197 193 187 181 178 175 176 179 179 178 171 170 178 180 176 177 179 176 171 171 175 179 178 182 202 211 168 154 151 155 150 141 134 142 141 137
176 142 157 195 225 275 311 228 257 265 230 176 170 166 163 171 175 179 180 180 182 183 179 173 174 176 181 183 186 183 177 174 178 180 177 182 191 200 193 174 162 158 154 151 144 137 158 150 155
155 178 173 150 208 263 281 287 312 4 74 124 145 150 168 176 176 177 177 175 176 177 180 181 179 176 181 183 179 180 180 178 179 179 178 182 193 193 183 175 168 161 153 148 141 137 155 150 164
166 160 107 128 175 242 275 251 233 229 212 189 178 179 191 184 177 175 175 177 177 177 176 172 172 179 179 176 178 178 181 181 174 167 177 187 193 188 175 174 171 168 162 156 145 141 151 143 166
165 151 137 147 167 167 236 263 228 204 200 193 200 195 188 185 181 179 180 179 172 167 165 166 171 167 169 174 176 174 180 179 172 175 185 187 185 181 179 178 174 173 174 164 151 161 155 151 155
181 184 155 165 229 186 190 263 274 203 200 190 190 187 184 178 180 178 175 168 164 165 167 171 174 174 177 175 171 175 177 174 175 184 190 187 184 185 181 172 171 175 171 163 159 165 156 158 170